Showing default

MCUBED-2, 39469

Orbit data source: Space-Track

MCUBED-2, 39469 is an American payload satellite in LEO that was launched on Fri, 06 Dec 2013 UTC via an ATLAS V 501 launch vehicle from the Air Force Western Test Range (AFWTR). Payload-class satellites include a variety of spacecraft equipped with specific instruments for various scientific and technological missions. These include communications satellites like Starlink; space stations such as the ISS; scientific satellites like the Hubble; Earth observation satellites from companies like Planet Labs, Umbra, and HawkEye 360; GPS; miniature CubeSats for education and research; and military/defense satellites.

Loading next visibility...
Identifier
39469, 2013-072H
Orbit
LEO
Country
Flag of USUS
Related business
Manufacturer
UM
Mission
Operational Amateur Technology
Bus & Motor
CUBESAT 1U, Unknown motor
Mass
1 kg wet, 1 kg dry
Launch date (UTC)
2013-12-06 (13 years ago)
Launch vehicle
ATLAS V 501
Launch site
Air Force Western Test Range (AFWTR)
Object type
Payload
Rocket body
Debris
Shape & HBR
Box, 0.1 m
Radar Cross Section
0.015 m², Medium (>0.1 m² and < 1m²)

Expand to show TLE details & history
Last TLE update: 5 days ago

TLE from 5 days ago
0 MCUBED-2
1 39469U 13072H   26155.09563512  .00010777  00000-0  41720-3 0  9993
2 39469 120.4927 301.5482 0143351   5.0942 355.1558 15.17923439115843
Epoch: 2026-06-04T02:17Z
TLE epoch observation values (Epoch: 2026-06-04T02:17:42.874Z)
Latitude
-0.00004°
Longitude
14.57477°
Altitude
415.25 km
Speed
7.717 km/s
True Right ascension
20h 06m 11s
True Declination
0° 00' 00"
Sunlit
Object was in full shadow at epoch
Visualization orbit readout
Latitude
Unknown
Longitude
Unknown
Altitude
Unknown
Speed
Unknown
Apparent Right ascension
Unknown
Apparent Declination
Unknown
Sunlit
N/A
Visualization observer readout
Local Sidereal Time
11:27:56
Azimuth
Unknown
Elevation
Unknown
Doppler factor
Unknown
Orbital elements
Apogee altitude
610.156 km
Perigee altitude
412.632 km
Semi-major axis
6,889.531 km
Eccentricity
0.01434
Inclination
120.4927°
RAAN
301.5482°
Arg. of periapsis
5.0942°
True anomaly
355.01456°
Mean anomaly
355.1558°
Eccentric anomaly
355.08544°
Mean motion
3.79541 °/min
Orbital period
94.85 mins
BSTAR
0.0004172
Loading maneuver chart data...
Computing Atmospheric mass density...
Loading historical data...
Loading historical data...
Loading historical data...
Loading historical data...
Loading historical data...
Loading historical data...
Loading historical data...

Documentation

Showing up to 5 results
|